Home   Weather   Ontario   Past weeks

Flag for USA Past Weather in Ontario, California, USA — Yesterday and Last 2 Weeks

Now
46 °F

Passing clouds.


Feels Like: 46 °F
Forecast: 48 / 67 °F
Wind: No wind

Location: Ontario International Airport

Current Time: Dec 5, 2016 at 2:48:17 am

Latest Report: Dec 5, 2016 at 1:53 am


Visibility: 10 mi

Pressure: 29.95 "Hg

Humidity: 63%

Dew Point: 34 °F

Location of OntarioLocation

Past Weather in Ontario — Graph

°F

Ontario Temperature Yesterday

Maximum temperature yesterday: 73 °F (at 1:53 pm)
Minimum temperature yesterday: 44 °F (at 5:53 am)
Average temperature yesterday: 58 °F

High & Low Weather Summary for the Past Weeks

 TemperatureHumidityPressure
High78 °F (Nov 24, 1:53 pm)100% (Nov 20, 8:53 pm)30.18 "Hg (Nov 20, 8:53 pm)
Low40 °F (Dec 3, 5:53 am)8% (Nov 25, 12:53 pm)29.83 "Hg (Nov 28, 3:53 pm)
Average55 °F55%30.01 "Hg
* Reported Nov 20 12:53 am — Dec 5 12:53 am, Ontario, Weather by CustomWeather, © 2016

Note: Actual official high and low records may vary slightly from our data, if they occured in-between our weather recording intervals... More about our weather records

Advertising

Ontario Weather History for the Previous 24 Hours

Scroll right to see more
 ConditionsComfort  
Time TempWeatherWind HumidityBarometerVisibility
12:53 am
Mon, Dec 5
47 °FPassing clouds.No wind64%29.96 "Hg10 mi
11:53 pm
Sun, Dec 4
48 °FPassing clouds.8 mph61%29.97 "Hg10 mi
10:53 pm54 °FPassing clouds.8 mph51%29.98 "Hg10 mi
9:53 pm55 °FPassing clouds.No wind51%29.98 "Hg10 mi
8:53 pm58 °FPassing clouds.3 mph46%29.99 "Hg10 mi
7:53 pm60 °FPassing clouds.5 mph39%29.97 "Hg10 mi
6:53 pm63 °FPassing clouds.No wind29%29.98 "Hg10 mi
5:53 pm63 °FPassing clouds.No wind26%29.98 "Hg10 mi
4:53 pm65 °FPassing clouds.5 mph22%29.97 "Hg10 mi
3:53 pm70 °FPartly sunny.8 mph18%29.97 "Hg10 mi
2:53 pm73 °FScattered clouds.6 mph15%29.97 "Hg10 mi
1:53 pm73 °FPassing clouds.3 mph16%29.97 "Hg10 mi
12:53 pm71 °FPassing clouds.5 mph14%29.99 "Hg10 mi
11:53 am69 °FPassing clouds.5 mph17%30.02 "Hg10 mi
10:53 am66 °FPassing clouds.No wind19%30.05 "Hg10 mi
9:53 am60 °FPassing clouds.No wind26%30.07 "Hg10 mi
8:53 am55 °FSunny.No wind34%30.08 "Hg10 mi
7:53 am52 °FSunny.No wind40%30.08 "Hg10 mi
6:53 am45 °FPassing clouds.No wind45%30.08 "Hg10 mi
5:53 am44 °FClear.7 mph47%30.06 "Hg10 mi
4:53 am50 °FClear.5 mph33%30.05 "Hg10 mi
3:53 am46 °FClear.6 mph42%30.05 "Hg10 mi
2:53 am47 °FClear.5 mph41%30.05 "Hg10 mi
Weather by CustomWeather, © 2016

See weather overviewHow to use our weather pages